Regional Weather Roundup
Issued by NWS

Home | Current Version | Previous Version | Text Only | Print | Product List | Glossary On
Versions: 1 2 3 4 5 6 7 8 9 10 11 12 13 14 15 16 17 18 19 20 21 22 23 24 25 26 27 28 29 30 31 32 33 34 35 36 37 38 39 40 41 42 43 44 45 46 47 48 49 50
000
ASUS45 KBOU 250210
RWRCO

WEATHER ROUNDUP FOR COLORADO
NATIONAL WEATHER SERVICE DENVER/BOULDER CO
700 PM MST WED FEB 24 2021

NOTE: "FAIR" INDICATES FEW OR NO CLOUDS BELOW 12000 FEET WITH NO
SIGNIFICANT WEATHER AND/OR OBSTRUCTIONS TO VISIBILITY.

COZ001>005-013-030-031-250300-
...NORTHWEST COLORADO...

CITY           SKY/WX    TMP DP  RH WIND       PRES   REMARKS
CRAIG          CLOUDY    26  13  57 NW9G17    30.14R WCI  17
HAYDEN         FLURRIES  23  16  74 SW12      30.14R WCI  12
MEEKER         CLOUDY    25  15  66 N13G23    30.13R WCI  14
RANGELY        CLOUDY    29  22  76 NE13G25   30.17R WCI  18
RABBIT EARS PA FAIR      12   9  85 CALM      30.05R
STEAMBOAT SPGS CLOUDY    24  14  66 SW6       30.10R WCI  17
WALDEN         CLOUDY    19  11  70 NW12      30.10R WCI   7
$$

COZ006>008-011-250300-
...WEST CENTRAL VALLEYS...

CITY           SKY/WX    TMP DP  RH WIND       PRES   REMARKS
GRAND JUNCTION CLOUDY    41  15  35 VRB3      30.01R
MONTROSE       FAIR      40  18  41 W6        29.98R
EAGLE          FAIR      37  12  35 VRB5      30.02R
RIFLE          CLOUDY    35  17  47 NW20G32   30.04R WCI  24
DELTA          CLOUDY    48  15  26 N6G22     29.98R
NUCLA          NOT AVBL
$$

COZ017>023-064>068-250300-
...SOUTHWEST COLORADO...

CITY           SKY/WX    TMP DP  RH WIND       PRES   REMARKS
DURANGO        FAIR      37  18  46 N6        29.97S
CORTEZ         FAIR      36  22  56 E3        29.96R
PAGOSA SPRINGS FAIR      30  16  55 CALM      30.01S
TELLURIDE      FAIR      32   1  27 CALM      30.02S
WOLF CREEK PAS MOCLDY    18   5  57 SW13G21   30.09R WCI   4
$$

COZ009-010-012-014-032>034-037-058>063-250300-
...CENTRAL COLORADO...

CITY           SKY/WX    TMP DP  RH WIND       PRES   REMARKS
ASPEN          CLOUDY    26  10  50 S9        29.99R WCI  17
BUENA VISTA    FAIR      28  15  59 SE9G20    30.03R WCI  19
COPPER MTN     FAIR      18   3  53 CALM        N/A
BERTHOUD PASS  HVY SNOW   5  -9  51 SE24G32   30.00R VSB<1/4 WCI -17
DAKOTA HILL    CLOUDY     9   5  85 NE9G18    30.05R VSB 1/2 WCI  -5
COTTONWOOD PAS FAIR      23  14  68 N3        30.01R
GUNNISON       FAIR      26  14  60 CALM      29.99R
GRANBY         FLURRIES  26  14  60 SE6       30.06R WCI  20
KREMMLING      CLOUDY    30  18  59 NW14G21   30.07R WCI  20
LEADVILLE      FAIR      17  -6  35 S8        29.98R WCI   7
MONARCH PASS   FAIR      18   1  49 SW16      30.12R WCI   3
SALIDA         FAIR      30  17  56 SE20G30   30.10R WCI  18
SUNLIGHT       LGT SNOW  18  12  79 W7        30.05R VSB 1   WCI   8
WILKERSON PASS HVY SNOW  14  10  85 E8G16     30.06R VSB 1/4 WCI   3
$$

COZ069>075-250300-
...SAN LUIS VALLEY/SANGRE DE CRISTO MOUNTAINS...

CITY           SKY/WX    TMP DP  RH WIND       PRES   REMARKS
ALAMOSA        FAIR      34  19  54 S13       29.99R WCI  25
DEL NORTE      FAIR      35   7  31 SW9       30.00R WCI  27
LA VETA PASS   FAIR      16  10  79 E6        30.05R WCI   7
SAGUACHE       MOCLDY    32  10  40 NW3       30.00R
$$

COZ035-036-038>040-250300-
...NORTHERN COLORADO FRONT RANGE...

CITY           SKY/WX    TMP DP  RH WIND       PRES   REMARKS
DENVER INTL AP LGT SNOW  29  24  82 NE14G21   30.20R WCI  18
AURORA         FLURRIES  33  17  51 E9        30.17R WCI  25
WATKINS        NOT AVBL
ERIE           LGT SNOW  28  26  96 N13       30.23R WCI  17
BOULDER        CLOUDY    28  27  93 N8        30.24R WCI  20
CENTENNIAL     CLOUDY    34  13  41 SE8       30.15R WCI  27
BROOMFIELD     SNOW      27  25  93 N14G23    30.22R VSB 1/2 WCI  15
FORT COLLINS   LGT SNOW  27  25  93 NE9       30.27R FOG     WCI  17
LONGMONT       LGT SNOW  29  26  87 N12G18    30.27R VSB 3/4 WCI  19
$$

COZ041-046-047-076>085-087-088-250300-
...PIKES PEAK/PALMER DIVIDE AND SOUTHERN FOOTHILLS...

CITY           SKY/WX    TMP DP  RH WIND       PRES   REMARKS
COLO. SPRINGS  LGT SNOW  30  20  66 E14       30.17R WCI  19
A. F. ACADEMY  LGT SNOW  26  23  89 S10       30.14R WCI  16
SCHRIEVER AFB  NOT AVBL
CHEYENNE MTN   CLOUDY    24  20  85 S6        30.10R FOG     WCI  17
ELLICOTT       CLOUDY    33  13  43 E13       30.16R WCI  23
FALCON         LGT SNOW  25  22  89 E8        30.16R VSB 3/4 WCI  16
FORT CARSON    LGT SNOW  32  16  52 SE9       30.15R FOG     WCI  24
LIMON          CLOUDY    34  14  43 E13       30.19R WCI  25
MONUMENT HILL  CLOUDY    27  16  63 SE15G21   30.15R WCI  15
CANON CITY     CLOUDY    36  18  48 SE9       30.14R
WALSENBURG     NOT AVBL
TRINIDAD       MOCLDY    42  16  34 SE13G22   30.04R
$$

COZ042>045-048>051-090-091-250300-
...NORTHEAST COLORADO...

CITY           SKY/WX    TMP DP  RH WIND       PRES   REMARKS
GREELEY        FLURRIES  31  20  63 NE15      30.27R WCI  20
AKRON          CLOUDY    33  17  51 NE13      30.23R WCI  24
BURLINGTON     CLOUDY    38  11  32 E6        30.22R
WRAY           CLOUDY    34  19  55 MISG      30.25R
YUMA           CLOUDY    32  19  59 NE8       30.24R WCI  25
STERLING       CLOUDY    34  18  51 NE10      30.26R WCI  26
HOLYOKE        FAIR      32  21  64 NE8       30.27R WCI  25
FORT MORGAN    CLOUDY    33  15  47 N9        30.25R WCI  25
$$

COZ086-089-092>099-250300-
...SOUTHEAST COLORADO...

CITY           SKY/WX    TMP DP  RH WIND       PRES   REMARKS
PUEBLO         CLOUDY    39  13  34 NE21      30.13R
LA JUNTA       FAIR      38  13  35 E16       30.14R
LAMAR          MOCLDY    38  13  35 E13       30.17R
SPRINGFIELD      N/A     34  12  40 E9        30.17R WCI  27
$$




USA.gov is the U.S. government's official web portal to all federal, state and local government web resources and services.